[[{"header":{"parameterUnit":"m.s-1","parameterCategory":2,"la1":30.2991,"la2":30.254,"lo1":-89.0895,"lo2":-89.0444,"dy":0.0017,"dx":0.0017,"nx":28,"ny":28,"refTime":"2024-06-26T03:00:00:Z","depth":"0","parameterNumber":2,"parameterNumberName":"U-component_of_CURRENTS"},"data":[0,0,0,0,0,0,0,0,0,0,0,0,0,0,0,0,0,0,0,0,0,0,0,0,0,0,0,0,0,0,0,0,0,0,0,0,0,0,0,0,0,0,0,0,0,0,0,0,0,0,0,0,0,0,0,0,0,0,0.0957,0.0958,0,0.1051,0.1052,0.1053,0.1119,0.112,0.112,0.112,0.1237,0.124,0.1243,0,0,0,0,0,0,0,0,0,0,0,0,0,0.0905,0.0905,0.0957,0.0958,0.0959,0.1051,0.1052,0.1054,0.1119,0.112,0.112,0.112,0.1236,0.124,0.1243,0,0,0,0,0,0,0,0,0,0,0,0,0,0.0958,0.0905,0.0957,0.1001,0.1006,0.105,0.1052,0.1054,0.1119,0.112,0.112,0.1121,0.1235,0.1239,0.1244,0.126,0,0,0.1257,0.1258,0,0,0,0,0,0,0,0,0.0955,0.096,0.0994,0.0999,0.1004,0.1072,0.1077,0.1123,0.1119,0.1079,0.112,0.1121,0.1183,0.1191,0.121,0.1265,0.127,0.1257,0.1259,0.1261,0.1262,0,0,0,0,0,0,0,0.0951,0.0957,0.0997,0.0995,0.1001,0.104,0.1048,0.1086,0.1129,0.1082,0.1087,0.1093,0.1186,0.1206,0.1214,0.1272,0.1257,0.1261,0.1263,0.1265,0.1362,0.1362,0,0,0,0,0,0,0.0931,0.0953,0.0994,0.0999,0.0978,0.104,0.1049,0.1051,0.1128,0.1139,0.1093,0.1096,0.1199,0.1209,0.1218,0.1264,0.1261,0.1265,0.1268,0.1362,0.1362,0.1362,0,0,0,0,0,0,0.0929,0.0933,0.099,0.0977,0.0986,0.104,0.1043,0.1053,0.1073,0.1135,0.1148,0.1102,0.1199,0.1212,0.1255,0.1268,0.1267,0.1271,0.1362,0.1362,0.1362,0.1341,0,0,0,0,0,0,0.0927,0.0932,0.0929,0.0975,0.0986,0.1014,0.1042,0.1054,0.1075,0.1081,0.1147,0.1159,0.1201,0.1248,0.1259,0.1274,0.1274,0.1362,0.1362,0.1362,0.1342,0.1341,0.1339,0,0,0,0,0,0.0925,0.0917,0.0928,0.0933,0.0979,0.1013,0.1023,0.1065,0.1075,0.1085,0.1129,0.1157,0.1256,0.1251,0.1264,0.1281,0.1362,0.1362,0.1362,0.1342,0.1341,0.1339,0,0,0,0,0,0,0.089,0.0924,0.0937,0.0939,0.0971,0.1024,0.1034,0.1058,0.11,0.1105,0.116,0.1175,0.1216,0.1246,0.1239,0.1307,0.1312,0.1315,0.1293,0.1292,0.1291,0.1277,0.1278,0,0,0,0,0,0.0879,0.0882,0.0923,0.0923,0.0937,0.0982,0.1,0.1028,0.107,0.1089,0.1134,0.1181,0.1226,0.1255,0.1295,0.1334,0.1353,0.1351,0.1349,0.1348,0.1344,0.1381,0.1383,0.1363,0.1363,0.1363,0,0,0.0863,0.0882,0.0884,0.0916,0.0944,0.0969,0.0995,0.1019,0.1044,0.1094,0.1136,0.1176,0.1233,0.1279,0.13,0.1308,0.1363,0.1348,0.1347,0.1344,0.1382,0.1384,0.1386,0.1363,0.1363,0.1363,0,0,0.084,0.0852,0.0854,0.0881,0.0919,0.095,0.0953,0.1003,0.103,0.107,0.1114,0.1156,0.1223,0.1272,0.1304,0.1316,0.135,0.133,0.1324,0.136,0.1362,0.1364,0.1385,0.1389,0.1336,0.1336,0.1336,0,0.0819,0.083,0.0859,0.0875,0.0897,0.0938,0.0955,0.0988,0.1046,0.1071,0.1077,0.1178,0.122,0.1288,0.1295,0.1315,0.1335,0.1327,0.1359,0.1361,0.1364,0.1384,0.1389,0.1335,0.1336,0.1336,0.1336,0,0.0808,0.0821,0.0824,0.0859,0.0886,0.0903,0.0954,0.0982,0.1012,0.1051,0.111,0.1166,0.1229,0.1249,0.128,0.1326,0.1333,0.1348,0.1362,0.1365,0.1386,0.1391,0.1334,0.1334,0.1335,0.1335,0,0,0.0758,0.0805,0.0806,0.0825,0.088,0.09,0.094,0.0992,0.1022,0.107,0.1114,0.1184,0.1211,0.1248,0.1292,0.1324,0.1356,0.1342,0.1344,0.136,0.1427,0.1471,0.1481,0.138,0.1381,0.1381,0.1433,0,0.0743,0.0754,0.0793,0.082,0.0837,0.0894,0.093,0.0983,0.103,0.1081,0.114,0.1194,0.1214,0.1247,0.1281,0.1344,0.137,0.1339,0.1424,0.1426,0.1463,0.1489,0.1587,0.1645,0.1438,0.1439,0.144,0,0.0735,0.0741,0.0751,0.0808,0.0822,0.0842,0.0909,0.0952,0.1035,0.1075,0.1135,0.1185,0.1253,0.1257,0.1352,0.1334,0.1372,0.1408,0.1411,0.1464,0.148,0.161,0.1662,0.1712,0.1448,0.1447,0.1447,0,0.0696,0.0726,0.0727,0.0744,0.0805,0.0822,0.086,0.0939,0.0987,0.1068,0.1109,0.119,0.1241,0.1298,0.138,0.1368,0.1475,0.1471,0.154,0.1543,0.1648,0.1659,0.1759,0.152,0.152,0.152,0.152,0,0.0689,0.0703,0.0698,0.0707,0.0721,0.0777,0.0816,0.0876,0.0955,0.1032,0.1096,0.1172,0.1254,0.1335,0.1386,0.1492,0.1484,0.1545,0.1567,0.1643,0.1652,0.1717,0.1622,0.1522,0.1521,0.1521,0.1521,0,0.0705,0.0688,0.0698,0.071,0.071,0.0727,0.0789,0.0839,0.0902,0.1002,0.1031,0.1161,0.1284,0.1363,0.1473,0.1514,0.1581,0.163,0.1706,0.1737,0.1837,0.1735,0.1659,0.1598,0.1711,0.1713,0.1714,0,0.0753,0.074,0.0696,0.0693,0.0704,0.0718,0.0754,0.081,0.0877,0.1017,0.1083,0.1208,0.1349,0.1512,0.1621,0.1726,0.1645,0.184,0.1832,0.1867,0.1769,0.1613,0.1555,0.1959,0.1962,0.1964,0.1966,0,0.0859,0.08,0.0792,0.0758,0.0759,0.0774,0.0821,0.0848,0.0954,0.1043,0.122,0.1331,0.1509,0.1699,0.1806,0.1874,0.1788,0.1895,0.1931,0.1965,0.1801,0.1749,0.1877,0.199,0.1987,0.1986,0.1984,0.1983,0.0949,0.0941,0.0893,0.0865,0.0863,0.0883,0.0895,0.0977,0.1084,0.1242,0.1339,0.1521,0.1747,0.1944,0.1995,0.2161,0.1932,0.2201,0.2071,0.1911,0.1855,0.2017,0.2153,0.2152,0.2151,0.215,0.2149,0,0.1083,0.1039,0.1028,0.0983,0.0993,0.096,0.0996,0.102,0.1152,0.1317,0.1486,0.178,0.2018,0.216,0.237,0.2372,0.2258,0.2343,0.2188,0.2116,0.2334,0.2359,0.2548,0.2548,0.2547,0.2547,0.2547,0.2547,0.115,0.115,0.1105,0.1124,0.1095,0.1102,0.1107,0.1154,0.1242,0.1447,0.1613,0.1744,0.1999,0.2333,0.251,0.2498,0.2293,0.2249,0.2089,0.2339,0.2318,0.2298,0.2312,0.2488,0.2487,0.1948,0.1944,0.194]},{"header":{"parameterUnit":"m.s-1","parameterCategory":2,"la1":30.2991,"la2":30.254,"lo1":-89.0895,"lo2":-89.0444,"dy":0.0017,"dx":0.0017,"nx":28,"ny":28,"refTime":"2024-06-26T03:00:00:Z","depth":"0","parameterNumber":3,"parameterNumberName":"V-component_of_CURRENTS"},"data":[0,0,0,0,0,0,0,0,0,0,0,0,0,0,0,0,0,0,0,0,0,0,0,0,0,0,0,0,0,0,0,0,0,0,0,0,0,0,0,0,0,0,0,0,0,0,0,0,0,0,0,0,0,0,0,0,0,0,-0.2081,-0.2083,0,-0.2227,-0.2229,-0.2231,-0.232,-0.232,-0.2321,-0.2321,-0.236,-0.236,-0.2361,0,0,0,0,0,0,0,0,0,0,0,0,0,-0.1935,-0.1937,-0.2081,-0.2083,-0.2084,-0.2227,-0.2229,-0.2231,-0.232,-0.232,-0.2321,-0.2321,-0.2359,-0.236,-0.2361,0,0,0,0,0,0,0,0,0,0,0,0,0,-0.2032,-0.1938,-0.2081,-0.2145,-0.2153,-0.2227,-0.2229,-0.2232,-0.232,-0.232,-0.2321,-0.2321,-0.2359,-0.236,-0.2361,-0.2355,0,0,-0.2364,-0.2365,0,0,0,0,0,0,0,0,-0.2026,-0.2037,-0.2134,-0.2141,-0.2149,-0.2256,-0.2192,-0.2267,-0.2319,-0.2257,-0.2321,-0.2322,-0.2314,-0.2319,-0.2347,-0.2357,-0.2359,-0.2364,-0.2365,-0.2365,-0.2366,0,0,0,0,0,0,0,-0.2019,-0.2032,-0.2139,-0.2136,-0.2145,-0.2187,-0.2201,-0.2208,-0.2278,-0.2262,-0.2269,-0.2284,-0.2318,-0.2346,-0.2348,-0.2359,-0.2364,-0.2365,-0.2366,-0.2366,-0.2386,-0.2386,0,0,0,0,0,0,-0.1997,-0.2025,-0.2135,-0.2144,-0.2088,-0.2189,-0.2204,-0.2221,-0.2281,-0.2292,-0.2284,-0.2288,-0.2344,-0.2347,-0.235,-0.236,-0.2365,-0.2366,-0.2367,-0.2386,-0.2386,-0.2386,0,0,0,0,0,0,-0.1993,-0.2005,-0.2129,-0.2087,-0.2106,-0.219,-0.2209,-0.2224,-0.2251,-0.2298,-0.2307,-0.2294,-0.2345,-0.2348,-0.237,-0.2361,-0.2367,-0.2367,-0.2386,-0.2386,-0.2386,-0.237,0,0,0,0,0,0,-0.1989,-0.2003,-0.2004,-0.2086,-0.2107,-0.2158,-0.2209,-0.2226,-0.2259,-0.2266,-0.231,-0.2315,-0.2346,-0.2369,-0.2371,-0.2363,-0.2368,-0.2387,-0.2386,-0.2386,-0.2371,-0.237,-0.2369,0,0,0,0,0,-0.1983,-0.1975,-0.2003,-0.2016,-0.2107,-0.2157,-0.2171,-0.2234,-0.2258,-0.2262,-0.231,-0.2314,-0.2369,-0.237,-0.2373,-0.2364,-0.2387,-0.2386,-0.2386,-0.2371,-0.237,-0.2369,0,0,0,0,0,0,-0.191,-0.1986,-0.2018,-0.2034,-0.2086,-0.2172,-0.2181,-0.2224,-0.2267,-0.227,-0.2318,-0.2327,-0.2341,-0.2352,-0.2352,-0.237,-0.2375,-0.2376,-0.2363,-0.2362,-0.2361,-0.2329,-0.2369,0,0,0,0,0,-0.1894,-0.1909,-0.1988,-0.1998,-0.202,-0.2098,-0.2125,-0.2167,-0.222,-0.2241,-0.2277,-0.2311,-0.2343,-0.2352,-0.2375,-0.2381,-0.2387,-0.2376,-0.2374,-0.2373,-0.235,-0.2381,-0.238,-0.2386,-0.2386,-0.2386,0,0,-0.1865,-0.1911,-0.1918,-0.1983,-0.2029,-0.2053,-0.2115,-0.2147,-0.2167,-0.2232,-0.2259,-0.2303,-0.2344,-0.2367,-0.2372,-0.2374,-0.2374,-0.2373,-0.2372,-0.2348,-0.238,-0.238,-0.2379,-0.2386,-0.2386,-0.2386,0,0,-0.1818,-0.1858,-0.1858,-0.1896,-0.1958,-0.2008,-0.2011,-0.2089,-0.2123,-0.2157,-0.2217,-0.2261,-0.2293,-0.2341,-0.2365,-0.2363,-0.2368,-0.2362,-0.233,-0.2361,-0.2361,-0.236,-0.2363,-0.2363,-0.2361,-0.2361,-0.2361,0,-0.1781,-0.1799,-0.1862,-0.1875,-0.1898,-0.198,-0.1983,-0.2029,-0.2105,-0.2128,-0.215,-0.2242,-0.2282,-0.2329,-0.234,-0.2359,-0.2366,-0.2336,-0.2359,-0.2359,-0.2359,-0.2362,-0.2362,-0.236,-0.236,-0.236,-0.2361,0,-0.1743,-0.1756,-0.1754,-0.1801,-0.1831,-0.1842,-0.1916,-0.1945,-0.1994,-0.2049,-0.2101,-0.218,-0.2235,-0.226,-0.2302,-0.2327,-0.2327,-0.2357,-0.2362,-0.2358,-0.2361,-0.2361,-0.2359,-0.2359,-0.236,-0.236,0,0,-0.1653,-0.1716,-0.1713,-0.1721,-0.1791,-0.1808,-0.1839,-0.1894,-0.1909,-0.1987,-0.2014,-0.2105,-0.2159,-0.2189,-0.2257,-0.2289,-0.231,-0.2315,-0.2317,-0.2313,-0.2353,-0.2301,-0.2296,-0.2347,-0.2347,-0.2347,-0.2353,0,-0.1601,-0.1603,-0.1653,-0.1643,-0.1647,-0.1725,-0.1744,-0.1803,-0.1864,-0.1907,-0.2006,-0.2051,-0.213,-0.2159,-0.2211,-0.2291,-0.231,-0.2303,-0.2359,-0.2359,-0.2312,-0.2295,-0.219,-0.2182,-0.2354,-0.2354,-0.2354,0,-0.1531,-0.1553,-0.1535,-0.1569,-0.1576,-0.158,-0.1624,-0.1655,-0.1745,-0.1791,-0.1874,-0.1953,-0.2041,-0.2092,-0.2215,-0.2207,-0.2262,-0.2316,-0.2318,-0.2269,-0.2308,-0.2215,-0.2177,-0.2185,-0.2355,-0.2355,-0.2355,0,-0.1419,-0.1453,-0.1435,-0.1447,-0.1506,-0.1504,-0.1534,-0.161,-0.1619,-0.1715,-0.1724,-0.1865,-0.1909,-0.2022,-0.2155,-0.2182,-0.2258,-0.2318,-0.2315,-0.2312,-0.2229,-0.2218,-0.2198,-0.2363,-0.2363,-0.2363,-0.2363,0,-0.1326,-0.129,-0.1378,-0.136,-0.1322,-0.1409,-0.1377,-0.1429,-0.1494,-0.1468,-0.1649,-0.1658,-0.1888,-0.1976,-0.2108,-0.2202,-0.2228,-0.2285,-0.2306,-0.222,-0.2208,-0.2217,-0.2229,-0.2363,-0.2363,-0.2363,-0.2363,0,-0.1143,-0.1215,-0.1175,-0.1242,-0.1254,-0.1212,-0.1242,-0.1212,-0.1316,-0.1286,-0.1304,-0.149,-0.1614,-0.1819,-0.1994,-0.2109,-0.2216,-0.2241,-0.2109,-0.2114,-0.213,-0.2144,-0.2169,-0.2195,-0.2246,-0.2245,-0.2244,0,-0.1032,-0.1005,-0.1048,-0.1002,-0.1007,-0.0992,-0.0959,-0.1082,-0.1051,-0.1158,-0.1107,-0.1263,-0.1314,-0.1586,-0.1844,-0.2049,-0.2122,-0.2061,-0.2101,-0.2086,-0.212,-0.2185,-0.2213,-0.1989,-0.1986,-0.1983,-0.1981,0,-0.0788,-0.0809,-0.0778,-0.0723,-0.0679,-0.0634,-0.0613,-0.0583,-0.0696,-0.0688,-0.0688,-0.0756,-0.1098,-0.1279,-0.1611,-0.1788,-0.2034,-0.2013,-0.204,-0.193,-0.1957,-0.2006,-0.2021,-0.1958,-0.1961,-0.1962,-0.1964,-0.1964,-0.0549,-0.0473,-0.045,-0.0378,-0.0323,-0.0222,-0.0154,-0.0134,-0.0063,-0.0019,-0.0215,-0.0215,-0.0632,-0.1108,-0.1414,-0.1792,-0.1876,-0.1834,-0.1856,-0.1929,-0.1931,-0.1873,-0.1815,-0.1816,-0.1817,-0.1819,-0.1819,0,-0.0222,-0.0183,-0.0098,0.0004,0.013,0.0052,0.0133,0.0198,0.0351,0.0386,0.0406,0.0286,-0.0094,-0.0649,-0.1226,-0.1518,-0.1742,-0.1665,-0.1725,-0.177,-0.1733,-0.1695,-0.1555,-0.1555,-0.1555,-0.1555,-0.1555,-0.1555,-0.0035,0.0115,0.0116,0.0398,0.0468,0.0611,0.0665,0.0745,0.0783,0.092,0.096,0.0885,0.0482,-0.0412,-0.1114,-0.1353,-0.1542,-0.1606,-0.174,-0.1677,-0.1695,-0.1713,-0.1681,-0.154,-0.154,-0.1763,-0.1764,-0.1765]}],[{"header":{"parameterUnit":"m.s-1","parameterCategory":2,"la1":30.2991,"la2":30.254,"lo1":-89.0895,"lo2":-89.0444,"dy":0.0017,"dx":0.0017,"nx":28,"ny":28,"refTime":"2024-06-26T03:00:00:Z","depth":"2","parameterNumber":2,"parameterNumberName":"U-component_of_CURRENTS"},"data":[0,0,0,0,0,0,0,0,0,0,0,0,0,0,0,0,0,0,0,0,0,0,0,0,0,0,0,0,0,0,0,0,0,0,0,0,0,0,0,0,0,0,0,0,0,0,0,0,0,0,0,0,0,0,0,0,0,0,0.1166,0.1167,0,0.1204,0.1204,0.1204,0.1166,0.1165,0.1163,0.1162,0.1131,0.1132,0.1132,0,0,0,0,0,0,0,0,0,0,0,0,0,0.1033,0.1036,0.1166,0.1167,0.1168,0.1204,0.1204,0.1204,0.1166,0.1164,0.1163,0.1162,0.1131,0.1132,0.1132,0,0,0,0,0,0,0,0,0,0,0,0,0,0.108,0.1036,0.1166,0.1155,0.1155,0.1204,0.1204,0.1204,0.1166,0.1164,0.1163,0.1161,0.1131,0.1132,0.1132,0.117,0,0,0.1133,0.1133,0,0,0,0,0,0,0,0,0.1077,0.1084,0.1156,0.1156,0.1156,0.1181,0.1146,0.119,0.1167,0.1158,0.1162,0.116,0.1145,0.1145,0.1151,0.1168,0.1167,0.1133,0.1134,0.1134,0.1134,0,0,0,0,0,0,0,0.1074,0.1082,0.1177,0.1157,0.1157,0.114,0.1144,0.1154,0.1157,0.1159,0.1157,0.1168,0.1144,0.1151,0.115,0.1166,0.1133,0.1134,0.1134,0.1134,0.1223,0.1225,0,0,0,0,0,0,0.1081,0.108,0.1176,0.1179,0.1115,0.1144,0.1149,0.1172,0.1158,0.1156,0.1169,0.1166,0.1151,0.115,0.1149,0.1188,0.1134,0.1134,0.1134,0.1221,0.1223,0.1226,0,0,0,0,0,0,0.1078,0.1089,0.1175,0.1131,0.1142,0.1149,0.1175,0.1174,0.1165,0.1168,0.1163,0.116,0.115,0.1148,0.1176,0.1186,0.1134,0.1135,0.1218,0.1222,0.1225,0.1269,0,0,0,0,0,0,0.1074,0.1088,0.1095,0.1133,0.1145,0.12,0.1177,0.1176,0.1177,0.1173,0.1159,0.1155,0.1148,0.1176,0.1177,0.1186,0.1135,0.1216,0.122,0.1224,0.1265,0.1273,0.128,0,0,0,0,0,0.1069,0.1079,0.1096,0.1107,0.1159,0.1201,0.1205,0.1201,0.1178,0.1183,0.1191,0.1154,0.1201,0.1179,0.1179,0.1188,0.1214,0.1219,0.1223,0.1261,0.1272,0.128,0,0,0,0,0,0,0.1001,0.1078,0.1096,0.1123,0.1163,0.1195,0.1194,0.1198,0.1208,0.1196,0.1188,0.1187,0.1218,0.1207,0.1182,0.123,0.1199,0.1204,0.1228,0.1237,0.1245,0.1267,0.1135,0,0,0,0,0,0.1002,0.1035,0.1102,0.1117,0.1142,0.1169,0.118,0.1188,0.1209,0.1208,0.1204,0.1211,0.1243,0.1241,0.1262,0.1285,0.1304,0.1292,0.1299,0.1306,0.1327,0.1387,0.1402,0.1241,0.1241,0.1241,0,0,0.0969,0.1022,0.1032,0.1106,0.1132,0.1172,0.1169,0.1191,0.1219,0.1206,0.1223,0.124,0.1261,0.1297,0.1307,0.1281,0.1362,0.1312,0.1317,0.1335,0.1394,0.1409,0.1423,0.1245,0.1244,0.1244,0,0,0.0931,0.0983,0.1002,0.1054,0.1115,0.1153,0.1161,0.1203,0.1217,0.1259,0.1264,0.1304,0.1316,0.1352,0.1371,0.1438,0.1411,0.1419,0.1461,0.1519,0.1533,0.1545,0.1583,0.1599,0.141,0.141,0.141,0,0.0883,0.0937,0.1007,0.1051,0.1086,0.1146,0.1172,0.1217,0.1257,0.1285,0.1266,0.1347,0.1356,0.1435,0.146,0.1455,0.1471,0.1417,0.1529,0.1541,0.1553,0.159,0.1606,0.1413,0.1413,0.1412,0.1412,0,0.0879,0.0921,0.0937,0.1028,0.1077,0.1108,0.12,0.1237,0.1263,0.131,0.1386,0.1427,0.1472,0.1482,0.1492,0.1579,0.1558,0.1539,0.15,0.1572,0.1606,0.1622,0.1417,0.1416,0.1415,0.1414,0,0,0.0779,0.0903,0.0909,0.0947,0.1069,0.1103,0.1185,0.1277,0.132,0.1386,0.1444,0.1533,0.1556,0.1582,0.1598,0.1653,0.175,0.1626,0.1628,0.1657,0.1863,0.1893,0.1913,0.1737,0.174,0.1743,0.185,0,0.0748,0.08,0.0888,0.0943,0.0984,0.1092,0.116,0.1258,0.1336,0.1413,0.1511,0.157,0.1595,0.1605,0.1681,0.1737,0.1795,0.1722,0.1797,0.1799,0.1812,0.1935,0.1623,0.1697,0.1866,0.1868,0.187,0,0.0738,0.0774,0.0805,0.0915,0.0942,0.0982,0.1106,0.1178,0.1338,0.1396,0.1509,0.1582,0.1713,0.1695,0.1865,0.1809,0.185,0.1888,0.1892,0.1922,0.1862,0.1656,0.172,0.1897,0.1895,0.1893,0.1891,0,0.0652,0.0734,0.0746,0.0785,0.0909,0.0937,0.1001,0.1153,0.1225,0.1381,0.144,0.1612,0.1671,0.1793,0.1909,0.1881,0.2072,0.2034,0.2106,0.2106,0.1861,0.1837,0.215,0.215,0.215,0.215,0.2149,0,0.0625,0.0653,0.0691,0.0708,0.0734,0.0844,0.0903,0.1005,0.1144,0.1257,0.1407,0.1524,0.1695,0.1835,0.1934,0.2096,0.2099,0.216,0.216,0.1869,0.1845,0.2028,0.2013,0.2154,0.2153,0.2152,0.2151,0,0.0603,0.0615,0.0642,0.0693,0.0704,0.0726,0.0834,0.091,0.1018,0.1169,0.122,0.1456,0.1666,0.1834,0.2025,0.2108,0.2256,0.229,0.1944,0.1906,0.2241,0.2226,0.2413,0.2415,0.2418,0.2419,0.2421,0,0.0626,0.0618,0.0611,0.062,0.0647,0.0679,0.0739,0.084,0.0939,0.1156,0.1248,0.1458,0.1675,0.1973,0.2065,0.2244,0.2321,0.2114,0.2043,0.23,0.228,0.2261,0.2245,0.171,0.1706,0.1702,0.1699,0,0.0686,0.0648,0.0663,0.0646,0.0663,0.0706,0.0781,0.0822,0.0987,0.1107,0.134,0.1506,0.1717,0.18,0.1991,0.2061,0.2077,0.2056,0.2399,0.1725,0.1655,0.163,0.1632,0.1667,0.167,0.1673,0.1674,0.1676,0.0748,0.0753,0.0735,0.0736,0.0748,0.0794,0.0824,0.093,0.106,0.122,0.136,0.1506,0.1526,0.1707,0.1758,0.1793,0.1954,0.1908,0.191,0.1918,0.1851,0.1793,0.1815,0.1819,0.1822,0.1825,0.1828,0,0.0866,0.0858,0.0857,0.0854,0.0879,0.0856,0.0928,0.096,0.1109,0.1184,0.1331,0.1256,0.1309,0.1383,0.1339,0.1445,0.1334,0.1462,0.1239,0.1271,0.1299,0.1193,0.0987,0.0986,0.0985,0.0983,0,0,0.0938,0.0966,0.0946,0.0999,0.0989,0.1011,0.1035,0.1066,0.1097,0.1132,0.1121,0.1173,0.126,0.1054,0.1061,0.1023,0.1141,0.0992,0.164,0.1398,0.1425,0.1514,0.1385,0,0,0,0,0]},{"header":{"parameterUnit":"m.s-1","parameterCategory":2,"la1":30.2991,"la2":30.254,"lo1":-89.0895,"lo2":-89.0444,"dy":0.0017,"dx":0.0017,"nx":28,"ny":28,"refTime":"2024-06-26T03:00:00:Z","depth":"2","parameterNumber":3,"parameterNumberName":"V-component_of_CURRENTS"},"data":[0,0,0,0,0,0,0,0,0,0,0,0,0,0,0,0,0,0,0,0,0,0,0,0,0,0,0,0,0,0,0,0,0,0,0,0,0,0,0,0,0,0,0,0,0,0,0,0,0,0,0,0,0,0,0,0,0,0,0.0909,0.0908,0,0.0844,0.0843,0.0842,0.0762,0.0761,0.076,0.0759,0.0665,0.0664,0.0663,0,0,0,0,0,0,0,0,0,0,0,0,0,0.0974,0.0973,0.0909,0.0908,0.0907,0.0844,0.0843,0.0842,0.0763,0.0761,0.0759,0.0758,0.0666,0.0664,0.0663,0,0,0,0,0,0,0,0,0,0,0,0,0,0.0932,0.0973,0.0909,0.086,0.0854,0.0844,0.0843,0.0842,0.0763,0.0761,0.0759,0.0757,0.0666,0.0664,0.0663,0.0689,0,0,0.0657,0.0656,0,0,0,0,0,0,0,0,0.0934,0.0929,0.0868,0.0863,0.0857,0.0809,0.0832,0.0789,0.0763,0.0798,0.0759,0.0756,0.0712,0.0706,0.0699,0.0685,0.0681,0.0656,0.0655,0.0654,0.0654,0,0,0,0,0,0,0,0.0937,0.0932,0.0883,0.0867,0.0861,0.0844,0.0836,0.0823,0.0766,0.0795,0.0789,0.0782,0.0709,0.0701,0.0696,0.068,0.0657,0.0655,0.0654,0.0653,0.0596,0.0596,0,0,0,0,0,0,0.0946,0.0935,0.0885,0.0881,0.0891,0.0844,0.0835,0.0827,0.0767,0.0756,0.0783,0.0778,0.0705,0.0699,0.0693,0.0656,0.0654,0.0653,0.0652,0.0597,0.0596,0.0596,0,0,0,0,0,0,0.0948,0.0942,0.0888,0.0906,0.0898,0.0845,0.0836,0.0826,0.0794,0.0758,0.0747,0.0758,0.0704,0.0695,0.0667,0.0654,0.0652,0.065,0.0597,0.0597,0.0596,0.0625,0,0,0,0,0,0,0.095,0.0943,0.0934,0.0907,0.0897,0.0874,0.0838,0.0826,0.0794,0.0786,0.0734,0.0724,0.0701,0.067,0.0665,0.0652,0.0649,0.0598,0.0597,0.0596,0.0625,0.0626,0.0627,0,0,0,0,0,0.0953,0.0947,0.0934,0.0927,0.0888,0.0874,0.0868,0.0824,0.0794,0.0787,0.0749,0.0725,0.0662,0.0669,0.0663,0.0649,0.0598,0.0597,0.0596,0.0624,0.0626,0.0627,0,0,0,0,0,0,0.0951,0.0938,0.0923,0.0907,0.089,0.086,0.0843,0.082,0.0785,0.0765,0.0731,0.072,0.069,0.0668,0.0677,0.0629,0.0622,0.062,0.0645,0.0646,0.0647,0.0666,0.0647,0,0,0,0,0,0.0955,0.0954,0.0933,0.0918,0.0909,0.0876,0.086,0.0833,0.0803,0.0784,0.0749,0.071,0.0688,0.0666,0.0644,0.0625,0.06,0.0607,0.0608,0.0609,0.062,0.0571,0.0568,0.0593,0.0593,0.0593,0,0,0.0942,0.094,0.0932,0.0919,0.0897,0.0896,0.086,0.0833,0.0826,0.0782,0.0749,0.0717,0.0686,0.0661,0.0644,0.0636,0.0588,0.0608,0.061,0.062,0.057,0.0567,0.0565,0.0593,0.0593,0.0593,0,0,0.0934,0.0922,0.092,0.0922,0.0901,0.0891,0.0883,0.0849,0.0822,0.0799,0.0764,0.0727,0.0686,0.0663,0.0647,0.0643,0.0601,0.0623,0.0637,0.0589,0.0586,0.0584,0.0549,0.0543,0.0616,0.0616,0.0616,0,0.0904,0.0918,0.0915,0.0925,0.0925,0.0893,0.0893,0.0876,0.0835,0.0825,0.0787,0.073,0.0691,0.0677,0.0662,0.0646,0.0613,0.0637,0.0591,0.0588,0.0585,0.0549,0.0542,0.0618,0.0618,0.0617,0.0617,0,0.0909,0.0918,0.0917,0.0929,0.0936,0.0926,0.0919,0.0905,0.0867,0.0849,0.0813,0.0761,0.0724,0.07,0.0675,0.064,0.0622,0.0604,0.0591,0.0584,0.0547,0.0539,0.062,0.0619,0.0619,0.0618,0,0,0.0796,0.0899,0.0885,0.0914,0.0936,0.0934,0.0947,0.0944,0.0944,0.089,0.0884,0.082,0.0778,0.0758,0.0715,0.0666,0.0604,0.062,0.0617,0.0591,0.0498,0.0529,0.0524,0.0569,0.0568,0.0567,0.048,0,0.0772,0.082,0.0879,0.0906,0.0922,0.0951,0.0973,0.0975,0.0959,0.0949,0.0895,0.0858,0.0805,0.0765,0.0717,0.0643,0.0586,0.063,0.0503,0.05,0.0533,0.0517,0.0453,0.0374,0.0473,0.0471,0.0471,0,0.0715,0.0773,0.0804,0.0915,0.0921,0.0928,0.0962,0.0983,0.0995,0.0982,0.0953,0.0918,0.0855,0.0794,0.0669,0.0695,0.0594,0.053,0.0524,0.0542,0.0518,0.0395,0.0356,0.0458,0.0459,0.046,0.0461,0,0.0601,0.0702,0.0732,0.0759,0.0872,0.0877,0.0917,0.0955,0.0973,0.0975,0.097,0.0931,0.0866,0.0769,0.0647,0.0636,0.0514,0.0482,0.042,0.0422,0.034,0.0337,0.0374,0.0374,0.0374,0.0375,0.0375,0,0.0531,0.0545,0.0671,0.0675,0.0709,0.0805,0.082,0.0864,0.0917,0.0945,0.0946,0.0944,0.0844,0.078,0.067,0.0543,0.0524,0.0428,0.0401,0.035,0.0349,0.0402,0.0406,0.0371,0.0372,0.0373,0.0373,0,0.0383,0.0463,0.0504,0.062,0.0643,0.0647,0.075,0.0797,0.0834,0.0869,0.0861,0.0906,0.0843,0.0769,0.0623,0.0554,0.0442,0.039,0.0356,0.0329,0.0372,0.0379,0.0312,0.0312,0.0312,0.0312,0.0313,0,0.0321,0.0323,0.0423,0.0461,0.0497,0.054,0.06,0.0698,0.0768,0.0849,0.0876,0.0848,0.0876,0.0736,0.0597,0.0453,0.0432,0.0297,0.0271,0.0385,0.0365,0.0372,0.0378,0.0158,0.0157,0.0156,0.0155,0,0.0227,0.0238,0.0304,0.0377,0.0424,0.0519,0.0607,0.0645,0.0784,0.0825,0.0922,0.0951,0.0839,0.0709,0.0539,0.0433,0.0334,0.0277,0.0372,0.0214,0.0241,0.0222,0.0232,0.0147,0.0148,0.0149,0.0149,0.015,0.0159,0.0189,0.0284,0.0356,0.0429,0.055,0.0627,0.0734,0.0841,0.0916,0.0944,0.0932,0.0797,0.056,0.0406,0.0242,0.0293,0.0192,0.0193,0.0195,0.0223,0.0253,0.0166,0.0167,0.0168,0.0168,0.0169,0,0.0157,0.0228,0.0292,0.0424,0.0526,0.0564,0.0708,0.0791,0.0918,0.089,0.0935,0.0761,0.0609,0.0443,0.0187,0.0088,0.0052,0.0029,-0.0019,-0.0009,-0.0,0.0016,-0.0097,-0.0098,-0.0099,-0.01,0,0,0.0172,0.0261,0.0322,0.0512,0.0606,0.0763,0.0856,0.0923,0.0933,0.0909,0.0824,0.0743,0.0599,0.0333,0.0179,0.0029,0.0034,-0.0003,0.0224,0.0196,0.0204,0.0111,0.015,0,0,0,0,0]}],[{"header":{"parameterUnit":"m.s-1","parameterCategory":2,"la1":30.2991,"la2":30.254,"lo1":-89.0895,"lo2":-89.0444,"dy":0.0017,"dx":0.0017,"nx":28,"ny":28,"refTime":"2024-06-26T03:00:00:Z","depth":"4","parameterNumber":2,"parameterNumberName":"U-component_of_CURRENTS"},"data":[0,0,0,0,0,0,0,0,0,0,0,0,0,0,0,0,0,0,0,0,0,0,0,0,0,0,0,0,0,0,0,0,0,0,0,0,0,0,0,0,0,0,0,0,0,0,0,0,0,0,0,0,0,0,0,0,0,0,-0.007,-0.007,0,-0.0037,-0.0036,-0.0036,0.0013,0.0014,0.0015,0.0016,-0.0002,-0.0003,-0.0005,0,0,0,0,0,0,0,0,0,0,0,0,0,-0.0083,-0.0083,-0.007,-0.0069,-0.0069,-0.0037,-0.0036,-0.0036,0.0013,0.0014,0.0015,0.0016,-0.0001,-0.0003,-0.0005,0,0,0,0,0,0,0,0,0,0,0,0,0,-0.0067,-0.0083,-0.007,-0.004,-0.0036,-0.0037,-0.0036,-0.0036,0.0013,0.0014,0.0016,0.0017,-0.0001,-0.0003,-0.0005,-0.0048,0,0,-0.0011,-0.0012,0,0,0,0,0,0,0,0,-0.0068,-0.0067,-0.0045,-0.0042,-0.0038,-0.0013,-0.0047,-0.0042,0.0012,-0.0007,0.0016,0.0018,-0.0011,-0.0012,-0.001,-0.0048,-0.0049,-0.0012,-0.0013,-0.0014,-0.0014,0,0,0,0,0,0,0,-0.0069,-0.0068,-0.0058,-0.0044,-0.004,-0.0024,-0.0021,-0.0046,-0.002,-0.0006,-0.0002,0.0004,-0.0009,-0.0008,-0.001,-0.0049,-0.0011,-0.0013,-0.0015,-0.0015,-0.0097,-0.0098,0,0,0,0,0,0,-0.0073,-0.007,-0.0059,-0.0057,-0.0048,-0.0025,-0.0021,-0.0024,-0.0018,-0.0015,0.0003,0.0006,-0.0005,-0.0008,-0.0011,-0.0003,-0.0014,-0.0016,-0.0017,-0.0096,-0.0097,-0.0098,0,0,0,0,0,0,-0.0074,-0.0073,-0.0061,-0.0061,-0.0058,-0.0027,-0.003,-0.0024,0.0003,-0.0011,-0.0009,0.0027,-0.0004,-0.0008,-0.0016,-0.0006,-0.0017,-0.0018,-0.0095,-0.0096,-0.0098,-0.0026,0,0,0,0,0,0,-0.0074,-0.0074,-0.0067,-0.0061,-0.0058,-0.0047,-0.0031,-0.0024,0.0004,0.0009,0.0009,0.0008,-0.0003,-0.0012,-0.0018,-0.0009,-0.002,-0.0094,-0.0096,-0.0097,-0.0027,-0.0024,-0.0022,0,0,0,0,0,-0.0075,-0.0076,-0.0068,-0.0065,-0.0054,-0.0047,-0.0043,-0.0017,0.0004,0.0014,0.0014,0.001,-0.0027,-0.0014,-0.0021,-0.0012,-0.0093,-0.0095,-0.0097,-0.0028,-0.0025,-0.0022,0,0,0,0,0,0,-0.0067,-0.0071,-0.0061,-0.0059,-0.0046,-0.0037,-0.0018,-0.0007,0.0003,0.0018,0.0004,0.0001,-0.0007,-0.0029,-0.0014,-0.0047,-0.0064,-0.0067,-0.001,-0.0007,-0.0005,0.0023,-0.0022,0,0,0,0,0,-0.0067,-0.0067,-0.0065,-0.0055,-0.0048,-0.003,-0.0019,-0.0002,0.0004,0.0013,0.0016,0.0002,-0.0028,-0.0028,-0.0055,-0.0066,-0.0084,-0.0071,-0.0068,-0.0066,-0.0051,-0.01,-0.01,-0.0105,-0.0105,-0.0105,0,0,-0.0057,-0.0058,-0.0054,-0.0052,-0.0035,-0.0026,-0.0018,0.0008,0.002,0.0004,0.0032,0.0011,-0.0033,-0.0043,-0.0049,-0.0051,-0.0069,-0.0069,-0.0065,-0.0052,-0.0102,-0.0102,-0.0101,-0.0106,-0.0106,-0.0106,0,0,-0.0035,-0.0038,-0.0028,-0.0025,-0.0004,-0.0002,0.0009,0.0029,0.0046,0.0059,0.0039,0.0024,0.001,-0.0026,-0.0049,-0.0058,-0.0061,-0.006,-0.0012,-0.006,-0.0059,-0.0059,-0.0047,-0.0047,-0.0051,-0.0051,-0.0051,0,-0.0007,-0.0008,-0.002,-0.0011,0.0003,0.001,0.0031,0.0032,0.0052,0.0062,0.0079,0.004,0.0011,-0.0032,-0.002,-0.005,-0.0048,-0.0011,-0.0053,-0.0054,-0.0054,-0.0043,-0.0043,-0.0048,-0.0048,-0.0048,-0.0049,0,0.001,0.002,0.003,0.0037,0.0042,0.0066,0.006,0.0079,0.0105,0.0109,0.0103,0.0065,0.0055,0.0026,0.0014,-0.0013,0.0002,-0.0047,-0.0049,-0.0049,-0.0038,-0.0039,-0.0043,-0.0044,-0.0045,-0.0046,0,0,0.0082,0.005,0.0066,0.0075,0.0075,0.0087,0.0095,0.0107,0.0129,0.0134,0.0155,0.0105,0.0117,0.0089,0.0055,0.0017,0.0025,0.0012,0.0008,0.0046,-0.0018,0.0087,0.0095,-0.0017,-0.0018,-0.0018,0.0006,0,0.0127,0.0142,0.0114,0.0147,0.0159,0.0148,0.0154,0.0159,0.0172,0.0188,0.0142,0.0153,0.0127,0.0149,0.0102,0.0028,0.0021,0.0027,-0.0043,-0.0044,0.0065,0.0096,-0.002,0.0005,0.0004,0.0004,0.0004,0,0.0172,0.0175,0.0216,0.0202,0.0211,0.024,0.0268,0.027,0.0259,0.0274,0.027,0.0247,0.0208,0.0186,0.009,0.0108,0.0079,0.0019,0.0017,0.009,0.0057,-0.0009,0.0001,0.0001,0.0002,0.0002,0.0002,0,0.0235,0.0249,0.029,0.0292,0.0281,0.0323,0.0332,0.0331,0.0337,0.0359,0.0376,0.0317,0.0316,0.0232,0.0154,0.0138,0.0047,-0.001,0.0057,0.0065,-0.0069,-0.007,-0.0054,-0.0054,-0.0055,-0.0055,-0.0055,0,0.028,0.0306,0.0346,0.0362,0.0433,0.0409,0.047,0.0473,0.047,0.0462,0.0454,0.0425,0.0333,0.0268,0.0182,0.0142,0.0078,0.0094,0.0078,-0.0036,-0.0034,-0.0067,-0.0069,-0.0054,-0.0054,-0.0054,-0.0054,0,0.0307,0.0335,0.0383,0.0429,0.0464,0.0527,0.0556,0.0567,0.0587,0.0577,0.0597,0.0529,0.047,0.0382,0.0249,0.0212,0.0128,0.0134,0.008,0.0054,0.0176,0.0177,0.0216,0.022,0.0223,0.0226,0.0229,0,0.0293,0.0333,0.0446,0.0506,0.0545,0.0623,0.0651,0.0657,0.0643,0.0603,0.0577,0.0568,0.0517,0.0404,0.0324,0.0248,0.0224,0.0226,0.0162,0.0224,0.0203,0.0199,0.0196,0.0234,0.0235,0.0235,0.0236,0,0.0263,0.0347,0.0396,0.0523,0.0612,0.0656,0.0691,0.0674,0.0641,0.0674,0.057,0.0541,0.0498,0.041,0.0417,0.0318,0.0236,0.026,0.0251,0.0191,0.0245,0.0221,0.0213,0.0248,0.0246,0.0245,0.0244,0,0.0253,0.0305,0.0404,0.0508,0.061,0.0633,0.0658,0.062,0.0613,0.0561,0.0518,0.047,0.0458,0.0449,0.0389,0.0392,0.0368,0.0334,0.032,0.0308,0.0332,0.0415,0.0479,0,0,0,0,0,0.0216,0.0259,0.035,0.0455,0.0544,0.0597,0.0632,0.0631,0.0607,0.054,0.0529,0.0478,0.0455,0.042,0.0438,0.0453,0.0378,0.0478,0.0333,0.0311,0.0298,0.0321,0,0,0,0,0,0,0.0198,0.0276,0.0323,0.0375,0.0425,0.0495,0.0518,0.0514,0.0465,0.0455,0.0427,0.0486,0.0449,0.0431,0.0428,0.0436,0.0349,0.0488,0.0489,0.0319,0.0307,0.0296,0.0315,0,0,0,0,0]},{"header":{"parameterUnit":"m.s-1","parameterCategory":2,"la1":30.2991,"la2":30.254,"lo1":-89.0895,"lo2":-89.0444,"dy":0.0017,"dx":0.0017,"nx":28,"ny":28,"refTime":"2024-06-26T03:00:00:Z","depth":"4","parameterNumber":3,"parameterNumberName":"V-component_of_CURRENTS"},"data":[0,0,0,0,0,0,0,0,0,0,0,0,0,0,0,0,0,0,0,0,0,0,0,0,0,0,0,0,0,0,0,0,0,0,0,0,0,0,0,0,0,0,0,0,0,0,0,0,0,0,0,0,0,0,0,0,0,0,-0.0003,-0.0004,0,-0.0063,-0.0064,-0.0065,-0.0069,-0.0068,-0.0067,-0.0067,-0.01,-0.0101,-0.0103,0,0,0,0,0,0,0,0,0,0,0,0,0,0.0073,0.0072,-0.0003,-0.0004,-0.0004,-0.0063,-0.0064,-0.0065,-0.0069,-0.0068,-0.0067,-0.0066,-0.0099,-0.0101,-0.0103,0,0,0,0,0,0,0,0,0,0,0,0,0,0.0027,0.0071,-0.0003,-0.0012,-0.0013,-0.0063,-0.0064,-0.0065,-0.007,-0.0068,-0.0067,-0.0066,-0.0099,-0.0101,-0.0103,-0.0144,0,0,-0.0111,-0.0112,0,0,0,0,0,0,0,0,0.003,0.0024,-0.001,-0.0011,-0.0013,-0.0056,-0.0049,-0.009,-0.007,-0.005,-0.0067,-0.0065,-0.0082,-0.0086,-0.0103,-0.0146,-0.0147,-0.0111,-0.0113,-0.0114,-0.0115,0,0,0,0,0,0,0,0.0033,0.0027,-0.0029,-0.0011,-0.0013,-0.0025,-0.003,-0.0057,-0.0074,-0.0052,-0.0052,-0.0056,-0.0083,-0.0101,-0.0104,-0.0148,-0.0111,-0.0114,-0.0115,-0.0116,-0.0189,-0.0189,0,0,0,0,0,0,0.0045,0.003,-0.0027,-0.003,0.0014,-0.0027,-0.0033,-0.0045,-0.0074,-0.0077,-0.0057,-0.0056,-0.0097,-0.0101,-0.0105,-0.0117,-0.0114,-0.0116,-0.0118,-0.0189,-0.0189,-0.019,0,0,0,0,0,0,0.0046,0.004,-0.0025,0.0001,-0.0008,-0.0029,-0.0043,-0.0047,-0.0058,-0.0078,-0.008,-0.0063,-0.0096,-0.0102,-0.0134,-0.012,-0.0117,-0.012,-0.0188,-0.0189,-0.0189,-0.0166,0,0,0,0,0,0,0.0049,0.0041,0.004,0.0001,-0.0009,-0.0051,-0.0044,-0.0049,-0.0062,-0.0061,-0.0084,-0.0086,-0.0096,-0.0131,-0.0137,-0.0123,-0.0122,-0.0188,-0.0188,-0.0189,-0.0166,-0.0165,-0.0165,0,0,0,0,0,0.0051,0.0049,0.004,0.0034,-0.0011,-0.0052,-0.0059,-0.007,-0.0063,-0.0074,-0.0093,-0.0085,-0.0139,-0.0134,-0.0141,-0.0127,-0.0187,-0.0188,-0.0189,-0.0166,-0.0165,-0.0165,0,0,0,0,0,0,0.0093,0.0047,0.0037,0.0024,-0.0011,-0.0051,-0.0053,-0.007,-0.0096,-0.0088,-0.0106,-0.0111,-0.0134,-0.0142,-0.0136,-0.0151,-0.0156,-0.0158,-0.0136,-0.0135,-0.0135,-0.0134,-0.0124,0,0,0,0,0,0.0098,0.0085,0.0034,0.003,0.0012,-0.0023,-0.0037,-0.0053,-0.0081,-0.0091,-0.0109,-0.0124,-0.0147,-0.015,-0.0176,-0.0191,-0.0204,-0.0183,-0.0183,-0.0182,-0.0187,-0.0198,-0.0198,-0.0193,-0.0193,-0.0193,0,0,0.012,0.0092,0.0088,0.0038,0.0015,-0.0021,-0.0029,-0.005,-0.0079,-0.0091,-0.0122,-0.0134,-0.0156,-0.0174,-0.0181,-0.0173,-0.0192,-0.0183,-0.0182,-0.0188,-0.0199,-0.0199,-0.0199,-0.0193,-0.0193,-0.0193,0,0,0.0153,0.0124,0.012,0.0078,0.0037,-0.0002,-0.001,-0.0057,-0.0074,-0.0114,-0.0124,-0.0139,-0.0168,-0.0183,-0.0194,-0.0212,-0.02,-0.0196,-0.018,-0.019,-0.019,-0.019,-0.021,-0.0212,-0.0182,-0.0182,-0.0182,0,0.0186,0.0166,0.0115,0.0087,0.006,0.0004,-0.0017,-0.0061,-0.011,-0.0128,-0.0117,-0.0165,-0.0179,-0.0206,-0.0197,-0.0211,-0.0207,-0.0177,-0.0188,-0.0188,-0.0189,-0.0209,-0.0212,-0.0181,-0.0181,-0.0181,-0.0181,0,0.0195,0.0182,0.0176,0.0115,0.0067,0.0047,-0.0033,-0.0071,-0.0094,-0.013,-0.0161,-0.0182,-0.0196,-0.0198,-0.0198,-0.0203,-0.0197,-0.0195,-0.0185,-0.0188,-0.0209,-0.0213,-0.0179,-0.018,-0.018,-0.018,0,0,0.0283,0.0202,0.0208,0.0192,0.0084,0.0058,-0.002,-0.009,-0.0115,-0.0158,-0.0181,-0.021,-0.0197,-0.0209,-0.0204,-0.0206,-0.0205,-0.0181,-0.0182,-0.0194,-0.0217,-0.0188,-0.0189,-0.0183,-0.0184,-0.0184,-0.0231,0,0.0322,0.0311,0.0229,0.0205,0.0193,0.0081,0.0018,-0.0062,-0.0118,-0.0162,-0.0199,-0.0203,-0.0209,-0.0172,-0.0192,-0.0206,-0.0211,-0.0193,-0.022,-0.0221,-0.0188,-0.0191,-0.0185,-0.0233,-0.0234,-0.0235,-0.0235,0,0.0361,0.0356,0.0369,0.0273,0.0253,0.0232,0.0134,0.0064,-0.005,-0.0086,-0.0125,-0.0164,-0.0189,-0.0171,-0.022,-0.0195,-0.0198,-0.0215,-0.0217,-0.0201,-0.0198,-0.0231,-0.0241,-0.0241,-0.024,-0.024,-0.024,0,0.048,0.0436,0.0471,0.0444,0.0336,0.0335,0.027,0.0143,0.0097,0.001,-0.0011,-0.0098,-0.0088,-0.0136,-0.0198,-0.0179,-0.0261,-0.0246,-0.0239,-0.0238,-0.0261,-0.026,-0.0271,-0.0271,-0.027,-0.027,-0.027,0,0.0535,0.0548,0.0574,0.0583,0.062,0.0495,0.0492,0.039,0.0292,0.0226,0.0101,0.0036,-0.0065,-0.0153,-0.0202,-0.0246,-0.0266,-0.0243,-0.0245,-0.0251,-0.0249,-0.0263,-0.0262,-0.0272,-0.0272,-0.0271,-0.0271,0,0.0605,0.0629,0.0672,0.0666,0.0686,0.0724,0.0653,0.06,0.0523,0.0438,0.0428,0.0188,0.0065,-0.0067,-0.0172,-0.0219,-0.0283,-0.0289,-0.0309,-0.0312,-0.0252,-0.0249,-0.0271,-0.0271,-0.027,-0.027,-0.0269,0,0.0602,0.0661,0.0771,0.0811,0.0829,0.0876,0.0849,0.0765,0.069,0.05,0.0439,0.0299,0.0139,-0.0035,-0.016,-0.0269,-0.0267,-0.0302,-0.0256,-0.025,-0.0251,-0.0249,-0.0246,-0.0268,-0.0268,-0.0268,-0.0268,0,0.0576,0.0679,0.0716,0.0823,0.0889,0.0912,0.0888,0.0877,0.0718,0.0704,0.0461,0.031,0.0147,-0.0038,-0.0117,-0.0202,-0.0288,-0.0295,-0.0296,-0.0252,-0.0247,-0.0247,-0.0246,-0.0266,-0.0266,-0.0266,-0.0266,0,0.0546,0.0592,0.0665,0.0748,0.0819,0.0825,0.0872,0.0764,0.0723,0.0557,0.048,0.0262,0.0152,-0.0005,-0.0106,-0.0164,-0.0152,-0.016,-0.0167,-0.017,-0.0124,-0.0101,-0.0078,0,0,0,0,0,0.0459,0.0456,0.0517,0.0592,0.0657,0.0697,0.0755,0.078,0.0746,0.0601,0.0547,0.038,0.0181,0.0038,-0.0004,-0.007,-0.0156,-0.0121,-0.0167,-0.0254,-0.0257,-0.0216,0,0,0,0,0,0,0.0382,0.0415,0.0459,0.0419,0.0429,0.0476,0.053,0.0555,0.0482,0.0457,0.0348,0.0352,0.016,0.0186,-0.0033,-0.0054,-0.0086,-0.0194,-0.0194,-0.0253,-0.0255,-0.0257,-0.0216,0,0,0,0,0]}]]